TimeMST,TemperatureF,Dew PointF,Humidity,Sea Level PressureIn,VisibilityMPH,Wind Direction,Wind SpeedMPH,Gust SpeedMPH,PrecipitationIn,Events,Conditions,WindDirDegrees,DateUTC
12:53 AM,25.0,15.1,66,30.35,10.0,Calm,Calm,-,N/A,,Clear,0,2014-01-21 07:53:00
1:53 AM,23.0,15.1,72,30.33,10.0,NNW,4.6,-,N/A,,Clear,330,2014-01-21 08:53:00
2:53 AM,23.0,10.0,58,30.32,10.0,NW,8.1,-,N/A,,Clear,320,2014-01-21 09:53:00
3:53 AM,27.0,6.1,41,30.29,10.0,WSW,9.2,-,N/A,,Clear,240,2014-01-21 10:53:00
4:53 AM,19.9,10.0,65,30.33,10.0,ESE,5.8,-,N/A,,Clear,120,2014-01-21 11:53:00
5:53 AM,27.0,5.0,39,30.31,10.0,Calm,Calm,-,N/A,,Clear,0,2014-01-21 12:53:00
6:53 AM,28.9,3.9,35,30.31,10.0,SW,11.5,-,N/A,,Clear,230,2014-01-21 13:53:00
7:53 AM,25.0,5.0,43,30.34,10.0,West,6.9,-,N/A,,Clear,270,2014-01-21 14:53:00
8:53 AM,28.9,14.0,54,30.34,10.0,Calm,Calm,-,N/A,,Clear,0,2014-01-21 15:53:00
9:53 AM,34.0,15.1,46,30.32,10.0,Calm,Calm,-,N/A,,Clear,0,2014-01-21 16:53:00
10:53 AM,37.0,15.1,41,30.31,10.0,ESE,4.6,-,N/A,,Clear,120,2014-01-21 17:53:00
11:53 AM,37.9,15.1,39,30.30,10.0,NNW,6.9,-,N/A,,Clear,330,2014-01-21 18:53:00
12:53 PM,43.0,12.9,30,30.23,10.0,Calm,Calm,-,N/A,,Clear,0,2014-01-21 19:53:00
1:53 PM,44.1,17.1,34,30.19,10.0,ENE,3.5,-,N/A,,Clear,60,2014-01-21 20:53:00
2:53 PM,46.9,19.9,34,30.17,10.0,SE,3.5,-,N/A,,Clear,130,2014-01-21 21:53:00
3:53 PM,46.9,21.9,37,30.16,10.0,Calm,Calm,-,N/A,,Clear,0,2014-01-21 22:53:00
4:53 PM,36.0,21.9,57,30.24,10.0,North,9.2,-,N/A,,Clear,360,2014-01-21 23:53:00
5:53 PM,34.0,19.9,56,30.22,10.0,NW,5.8,-,N/A,,Clear,320,2014-01-22 00:53:00
6:53 PM,33.1,19.9,59,30.23,10.0,SW,5.8,-,N/A,,Clear,220,2014-01-22 01:53:00
7:53 PM,28.9,19.9,69,30.27,10.0,ESE,5.8,-,N/A,,Clear,110,2014-01-22 02:53:00
8:53 PM,28.0,19.0,69,30.25,10.0,Calm,Calm,-,N/A,,Clear,0,2014-01-22 03:53:00
9:53 PM,28.0,19.0,69,30.24,10.0,NW,5.8,-,N/A,,Clear,310,2014-01-22 04:53:00
10:53 PM,28.9,18.0,64,30.22,10.0,West,6.9,-,N/A,,Clear,260,2014-01-22 05:53:00
11:53 PM,28.0,17.1,63,30.21,10.0,East,8.1,-,N/A,,Clear,90,2014-01-22 06:53:00